Wind_Speed
14 14 13 12 11 10 10 9 8 7 7 7 7 6 6 7 7 7 8 9 10 11 11 12 12 13 13 13 14 14 15 16 17 18 18 19 19 19 19 20 23 25
15 14 13 12 12 11 10 10 9 8 8 8 8 7 7 7 7 8 9 9 10 10 11 11 12 13 14 14 14 14 14 16 17 18 19 20 20 20 20 20 22 24
16 15 14 13 12 12 11 11 10 9 9 8 8 8 8 8 8 8 8 9 10 11 11 12 12 13 14 14 14 14 14 15 16 17 19 20 20 20 21 22 23 24
16 16 15 14 13 12 12 11 10 9 9 8 8 8 8 8 8 8 10 10 11 12 12 12 13 14 14 15 14 15 15 16 16 16 18 20 20 20 21 22 24 25
17 17 16 15 14 13 13 12 10 9 9 8 8 8 8 9 9 10 10 11 11 12 12 13 14 14 15 15 15 15 16 16 16 16 17 18 19 21 22 22 23 24
18 17 16 16 15 14 13 12 10 10 9 9 9 9 9 10 10 11 11 12 12 12 12 13 14 15 15 16 16 16 16 17 17 17 18 19 19 20 21 22 22 22
19 18 17 16 15 15 13 12 11 10 10 9 9 10 10 11 11 12 13 13 13 13 13 13 14 14 16 16 17 17 17 18 17 18 19 19 20 21 21 22 22 22
19 19 17 16 15 14 13 12 11 11 10 10 11 11 11 12 12 13 13 13 13 14 14 14 14 15 16 17 18 18 17 18 18 18 19 19 20 21 22 23 23 24
20 19 18 16 15 15 13 12 11 11 11 11 11 11 11 12 12 13 13 14 15 15 15 16 16 16 17 17 18 19 18 18 19 19 20 21 21 22 22 23 24 25
20 19 18 17 16 14 13 12 12 11 11 11 11 11 12 12 13 13 14 14 15 16 17 18 19 18 18 18 19 20 19 20 20 20 21 22 22 23 23 24 25 26
20 18 17 17 16 14 13 12 12 11 11 11 11 12 12 12 13 13 14 15 16 18 18 19 20 20 19 19 20 20 21 22 22 22 22 22 23 24 24 24 25 27
19 18 17 16 15 14 13 12 11 11 11 11 11 12 12 12 13 13 15 16 17 18 19 20 20 20 20 20 21 21 22 24 25 24 23 24 24 25 25 25 26 27
19 18 16 15 15 14 12 11 11 11 11 10 11 11 11 12 14 15 16 17 18 19 20 20 21 21 21 21 21 21 22 24 25 24 24 24 25 26 26 27 27 28
19 17 16 15 14 13 11 11 11 11 10 10 10 11 12 13 14 15 17 17 18 19 20 21 22 23 23 23 22 22 22 23 23 24 24 25 26 27 28 28 28 29
17 16 15 13 12 11 10 10 11 10 10 10 10 11 12 13 14 15 17 18 18 19 20 22 23 23 24 23 23 23 23 23 23 23 24 24 25 26 28 29 30 31
15 14 13 12 11 10 10 10 10 10 10 10 10 12 12 13 15 16 17 17 18 19 21 22 23 23 24 24 25 26 26 27 27 26 26 26 26 26 27 28 30 31
14 13 12 11 10 10 10 10 9 10 10 9 10 12 13 14 16 17 17 18 19 20 21 22 23 23 24 25 27 28 29 30 32 31 30 30 29 30 29 28 28 30
14 13 12 11 9 9 9 9 9 9 10 10 12 13 14 14 16 17 19 19 20 21 22 23 24 23 24 26 27 28 29 30 31 32 32 31 31 32 31 31 30 30
14 12 10 9 8 8 8 9 9 10 10 11 13 14 14 14 15 17 19 20 20 22 23 24 25 25 25 27 28 29 29 30 31 31 30 31 31 32 32 33 32 31
12 11 9 8 7 8 9 10 10 10 11 12 13 13 11 12 14 17 19 21 21 22 23 25 25 26 27 28 30 31 31 32 34 34 33 32 32 32 33 34 34 34
10 8 7 7 7 9 10 10 10 11 12 12 12 10 10 12 15 18 20 21 22 23 24 25 26 27 29 30 31 32 32 33 34 36 38 37 35 34 35 35 36 36
7 6 6 6 8 9 10 10 10 12 12 12 12 11 12 13 15 18 20 22 23 24 25 25 26 27 29 30 31 32 32 33 34 36 37 37 36 36 36 36 37 37
5 5 6 8 8 9 10 10 10 11 12 13 12 11 12 14 16 19 21 23 24 24 24 26 27 27 29 31 33 33 34 35 36 36 36 36 36 36 36 36 36 36
5 6 7 7 8 8 8 9 9 11 13 14 12 10 12 15 18 20 22 23 24 25 25 28 29 28 29 31 32 33 34 35 37 37 36 36 36 35 35 35 35 36
4 6 6 6 6 7 7 9 10 11 12 12 10 11 14 17 19 21 23 24 26 27 27 28 29 29 29 30 31 33 33 34 37 37 34 34 35 34 35 35 35 36
4 5 4 4 6 7 7 9 10 12 12 10 9 12 15 18 20 22 24 25 26 27 27 28 28 29 29 30 32 34 35 35 36 35 33 33 32 32 32 34 34 34
Wind_Direction
191 191 191 192 194 197 196 193 197 201 203 211 220 231 238 243 245 246 253 263 273 278 279 281 280 279 278 279 279 275 271 270 271 272 272 274 274 270 266 257 246 240
194 192 192 194 196 199 199 196 198 201 208 217 222 231 240 245 248 251 258 267 275 277 278 280 283 284 282 280 281 280 277 274 272 271 271 271 270 269 268 264 258 251
196 195 193 194 197 199 196 196 202 205 210 218 225 234 241 247 252 256 263 269 272 274 276 281 283 284 284 282 282 282 281 279 274 272 273 272 272 270 268 264 261 256
196 195 195 194 196 198 197 199 206 210 215 221 228 236 241 249 257 262 269 272 274 277 278 281 284 284 284 283 283 282 280 279 279 277 277 276 274 272 271 267 262 258
195 194 195 195 195 197 199 204 209 211 217 223 229 239 245 254 261 266 271 273 273 277 279 279 281 283 284 284 283 282 279 279 280 281 280 278 275 273 273 273 267 261
193 193 193 194 196 198 200 204 209 212 220 229 235 244 250 256 261 264 270 273 273 274 276 278 279 280 283 285 284 282 280 278 279 280 280 279 278 275 273 274 274 270
192 192 194 195 196 198 201 205 211 216 223 231 238 245 251 254 259 265 270 273 273 274 274 274 277 279 281 283 284 283 280 278 277 278 278 278 278 277 275 276 280 280
191 192 194 195 196 198 202 207 213 220 226 232 239 246 250 255 261 267 272 273 274 275 275 273 274 277 280 282 282 281 280 278 276 274 275 275 276 276 276 276 279 281
190 192 193 195 196 200 205 210 215 222 229 234 242 249 253 258 264 270 272 274 276 276 276 276 277 276 278 280 280 278 277 276 274 271 271 272 273 273 273 273 274 276
190 192 194 195 198 202 206 213 219 224 231 238 245 253 257 261 266 270 272 273 275 277 278 280 281 280 279 279 278 277 275 273 272 270 269 268 268 269 270 270 271 271
191 192 195 196 198 204 208 214 221 226 233 241 248 254 259 264 268 270 273 276 278 281 284 285 285 283 280 278 276 276 276 274 273 270 268 267 266 266 266 266 268 269
191 193 196 198 200 205 210 215 221 227 235 243 249 255 259 264 269 273 277 281 284 287 288 287 286 283 279 277 276 275 276 275 273 270 268 266 266 265 264 263 264 265
191 193 195 199 202 206 210 215 222 228 236 242 246 254 261 267 274 278 281 284 286 287 287 286 286 283 279 278 276 275 275 273 271 268 267 266 266 265 264 262 261 261
191 192 196 199 200 205 209 216 226 230 235 243 248 255 265 272 278 283 285 286 286 286 286 285 284 282 279 277 275 273 272 271 269 267 266 265 265 265 264 263 262 260
188 190 194 196 197 205 214 221 229 233 237 246 255 263 271 277 281 286 290 291 290 288 287 286 283 281 279 276 274 273 271 270 270 269 268 267 266 265 264 262 262 261
185 186 189 193 199 209 219 226 231 236 243 253 263 271 278 282 285 288 291 292 292 290 288 287 285 282 279 277 276 276 275 272 271 270 270 270 270 270 269 265 263 261
184 185 188 195 205 213 221 230 234 240 251 260 268 276 281 285 290 292 292 291 292 292 291 290 287 284 282 281 281 281 280 275 270 267 265 265 266 267 269 269 267 265
183 184 190 198 208 218 226 234 239 246 255 262 271 282 287 290 295 296 294 294 294 294 293 291 289 287 285 285 285 286 285 281 274 268 264 263 262 261 263 265 267 267
181 183 192 200 210 223 231 237 245 251 258 270 282 290 291 294 298 297 296 296 296 294 292 291 289 288 285 285 286 286 286 287 284 276 269 266 263 260 260 261 262 264
176 181 192 205 216 225 233 241 248 255 265 278 287 293 298 302 303 299 296 295 292 290 290 290 289 288 287 287 287 286 283 282 283 281 276 271 268 264 261 261 260 260
174 184 193 209 224 230 239 247 250 258 270 280 289 298 307 307 301 297 294 293 292 291 291 290 289 289 289 288 288 288 285 280 278 278 277 273 270 266 263 261 260 259
176 192 200 219 234 239 246 251 254 264 277 290 298 303 305 303 300 298 296 294 294 294 293 290 289 289 290 290 290 290 288 283 279 277 276 272 269 267 265 262 259 257
183 209 223 236 243 247 256 260 264 279 295 306 312 314 311 307 304 300 299 297 296 296 295 294 293 293 292 292 291 291 289 285 280 276 274 271 269 268 266 263 260 256
195 229 239 246 253 261 273 280 286 297 308 315 324 330 321 312 307 303 300 300 299 299 299 297 296 296 295 293 291 291 289 284 279 275 271 269 270 268 265 263 260 258
206 238 250 262 271 280 289 296 303 307 310 317 329 329 319 313 310 306 303 303 302 301 300 299 297 296 296 295 294 295 293 287 281 273 266 265 267 266 264 262 260 259
224 241 259 273 282 295 301 302 305 305 308 321 334 327 320 314 309 306 304 303 303 302 302 300 298 297 297 297 296 295 294 291 283 272 264 263 264 261 260 260 257 256
Height
799 800 801 802 803 804 804 805 806 806 807 807 808 808 808 809 809 809 809 809 809 808 808 808 807 806 806 805 805 804 803 802 802 801 801 801 801 801 801 801 801 801
798 799 800 801 802 803 803 804 805 805 806 806 806 807 807 808 808 808 808 808 808 807 807 807 806 806 805 804 804 803 802 802 801 801 800 799 799 799 799 799 799 799
796 797 799 800 801 802 802 803 804 804 804 805 805 806 806 807 807 807 807 807 807 806 806 805 805 805 804 804 803 802 802 801 800 800 799 798 798 797 797 797 797 797
795 796 797 798 799 800 801 802 802 803 803 804 804 805 805 805 806 806 806 806 805 805 805 804 804 804 803 803 802 801 801 800 799 799 798 796 796 795 795 795 794 794
793 794 796 797 798 799 800 800 801 802 802 803 803 804 804 804 804 804 804 804 804 803 803 803 802 802 802 802 801 800 799 799 798 797 797 795 795 794 793 793 792 791
791 793 794 795 796 797 798 799 800 800 801 801 802 802 803 803 803 803 803 802 802 802 801 801 801 801 801 801 800 799 798 797 797 796 795 794 793 792 792 791 789 788
789 791 793 794 795 796 797 798 798 799 800 800 800 801 801 801 801 801 801 801 800 800 799 799 799 799 799 799 799 798 797 796 795 795 794 793 792 791 790 788 787 786
787 789 791 792 793 794 795 796 797 798 798 799 799 799 799 800 800 799 799 799 799 798 798 797 797 796 797 797 797 796 796 795 794 794 793 791 790 789 788 787 785 784
785 787 789 790 791 793 794 795 795 796 797 797 797 798 798 798 798 798 798 797 797 797 796 795 795 794 794 794 795 794 794 793 792 792 791 790 789 787 786 785 784 782
783 785 787 788 789 791 792 793 794 794 795 795 796 796 796 797 797 796 796 795 795 794 794 793 793 792 792 792 792 792 791 791 790 790 789 788 787 785 784 784 782 780
781 783 785 786 787 789 790 791 792 792 793 794 794 794 794 795 795 794 794 794 793 792 791 791 791 790 790 789 789 789 789 788 788 787 786 785 784 783 782 781 780 778
779 781 783 784 786 787 788 789 790 791 792 792 792 793 792 792 792 792 792 792 791 790 789 789 789 789 788 787 787 786 786 785 785 784 784 783 782 781 780 778 777 776
777 779 781 782 784 785 786 787 788 789 790 790 790 790 790 790 790 790 790 789 788 788 787 787 787 786 786 785 784 783 783 782 782 781 781 780 779 778 777 776 774 773
775 777 779 781 782 783 785 786 787 787 788 788 788 788 788 788 788 788 787 786 786 785 785 785 784 784 783 782 781 781 780 779 779 778 777 776 776 774 773 772 771 770
773 775 777 779 780 782 783 784 785 786 786 786 786 786 786 786 786 785 785 784 783 783 782 782 781 781 780 779 779 778 778 777 776 775 774 773 772 771 770 768 767 766
772 774 776 778 779 780 782 782 783 784 784 784 784 784 784 784 784 783 782 782 781 780 780 779 778 778 777 777 776 776 775 774 773 772 772 770 769 767 766 764 763 762
770 773 774 776 778 779 780 781 781 782 782 782 782 782 782 782 781 781 780 780 779 778 777 776 775 775 774 774 774 773 772 771 769 768 767 767 765 764 762 761 759 758
769 771 773 775 776 777 778 779 779 780 780 780 780 780 780 779 779 779 778 778 777 776 775 774 773 772 772 771 770 770 769 767 765 764 762 761 760 759 758 757 755 754
768 770 772 773 775 776 777 777 778 778 778 778 778 777 777 777 777 777 777 776 775 774 773 771 770 770 769 768 767 766 765 764 762 760 758 756 755 754 753 752 751 750
767 769 771 772 773 775 775 775 776 776 776 776 775 775 774 774 775 775 774 774 772 771 770 768 767 767 765 765 764 763 762 761 758 756 754 752 751 750 748 747 746 746
766 768 770 771 772 773 774 774 774 774 774 774 773 772 772 772 772 772 772 771 770 768 766 765 764 763 762 761 760 759 758 756 754 752 749 747 745 744 743 742 741 741
766 768 769 770 771 772 772 773 773 773 773 772 771 770 770 770 770 770 769 768 767 765 763 761 760 759 758 757 756 755 753 751 750 748 745 742 740 738 738 736 736 735
765 768 768 769 770 770 771 771 771 771 771 770 769 768 768 768 768 768 767 765 763 762 760 758 756 755 755 753 752 751 749 747 744 742 740 737 735 733 732 731 730 729
764 766 767 768 768 769 770 770 770 770 770 769 768 767 767 767 767 765 764 763 761 759 757 755 753 752 751 749 748 747 745 742 739 737 734 732 730 729 727 726 724 724
763 765 766 766 767 768 768 769 769 769 769 768 767 767 767 766 765 764 762 760 759 757 754 752 750 748 747 745 743 742 740 737 735 732 728 726 725 724 722 720 719 718
762 764 764 765 766 766 767 768 768 768 767 766 766 766 765 765 764 762 760 758 756 754 751 750 747 744 743 741 739 737 736 733 730 726 723 721 720 718 716 714 713 712